Вернуться в каталог

EUTE 8 WEST B

АктивенСвязьGEO
NORAD 40875·PAYLOAD·🇪🇺 EU

Запущен Aug 20, 2015 с Guiana Space Centre

Loading…

TLE

СвежийSource: Space-Track

Эпоха: Sep 14, 2026, 08:38 UTC

1 40875U 15039B   26257.35974507 -.00000074  00000-0  00000-0 0  9996
2 40875   0.0668 350.9657 0003654 181.4722 302.4461  1.00270907 40554

Отслеживайте EUTE 8 WEST B в реальном времени с AllMySat

Download on the App Store